Time,TemperatureF,DewpointF,PressureIn,WindDirection,WindDirectionDegrees,WindSpeedMPH,WindSpeedGustMPH,Humidity,HourlyPrecipIn,Conditions,Clouds,dailyrainin,SoftwareType,DateUTC
2013-03-06 00:02:00,34.0,28.0,29.75,North,0,0.0,2.0,78,0.00,,,0.00,,2013-03-06 05:02:00,
2013-03-06 00:11:00,34.0,28.0,29.74,North,0,0.0,0.0,78,0.00,,,0.00,,2013-03-06 05:11:00,
2013-03-06 00:22:00,34.0,28.0,29.74,North,0,0.0,0.0,78,0.00,,,0.00,,2013-03-06 05:22:00,
2013-03-06 00:32:00,34.0,28.0,29.74,North,0,0.0,1.0,79,0.00,,,0.00,,2013-03-06 05:32:00,
2013-03-06 00:42:00,34.0,28.0,29.74,North,0,0.0,1.0,79,0.00,,,0.00,,2013-03-06 05:42:00,
2013-03-06 00:52:00,34.0,28.0,29.61,North,0,0.0,1.0,79,0.00,,,0.00,,2013-03-06 05:52:00,
2013-03-06 01:02:00,34.0,28.0,29.72,North,0,0.0,4.0,80,0.00,,,0.00,,2013-03-06 06:02:00,
2013-03-06 01:11:00,34.0,28.0,29.72,North,0,0.0,4.0,80,0.00,,,0.00,,2013-03-06 06:11:00,
2013-03-06 01:22:00,34.0,29.0,29.72,North,0,0.0,1.0,81,0.00,,,0.00,,2013-03-06 06:22:00,
2013-03-06 01:32:00,34.0,29.0,29.70,North,0,0.0,1.0,81,0.00,,,0.00,,2013-03-06 06:32:00,
2013-03-06 01:42:00,34.0,29.0,29.70,North,0,0.0,1.0,81,0.00,,,0.00,,2013-03-06 06:42:00,
2013-03-06 01:52:00,34.0,29.0,29.70,North,0,0.0,3.0,82,0.00,,,0.00,,2013-03-06 06:52:00,
2013-03-06 02:01:00,34.0,29.0,29.69,North,0,0.0,2.0,83,0.00,,,0.00,,2013-03-06 07:01:00,
2013-03-06 02:11:00,34.0,29.0,29.69,North,0,0.0,2.0,83,0.00,,,0.00,,2013-03-06 07:11:00,
2013-03-06 02:22:00,34.0,30.0,29.68,North,0,0.0,1.0,84,0.00,,,0.00,,2013-03-06 07:22:00,
2013-03-06 02:32:00,34.0,30.0,29.68,North,0,0.0,4.0,85,0.00,,,0.00,,2013-03-06 07:32:00,
2013-03-06 02:42:00,34.0,30.0,29.68,North,0,0.0,4.0,85,0.00,,,0.00,,2013-03-06 07:42:00,
2013-03-06 02:52:00,35.0,31.0,29.67,North,0,0.0,4.0,85,0.00,,,0.00,,2013-03-06 07:52:00,
2013-03-06 03:01:00,35.0,31.0,29.51,North,0,0.0,3.0,86,0.00,,,0.00,,2013-03-06 08:01:00,
2013-03-06 03:11:00,35.0,31.0,29.51,North,0,0.0,3.0,86,0.00,,,0.00,,2013-03-06 08:11:00,
2013-03-06 03:21:00,35.0,31.0,29.51,North,0,0.0,0.0,86,0.00,,,0.00,,2013-03-06 08:21:00,
2013-03-06 03:32:00,35.0,31.0,29.63,North,0,0.0,1.0,86,0.00,,,0.00,,2013-03-06 08:32:00,
2013-03-06 03:42:00,35.0,31.0,29.63,North,0,0.0,1.0,86,0.00,,,0.00,,2013-03-06 08:42:00,
2013-03-06 03:52:00,36.0,33.0,29.46,North,0,0.0,4.0,87,0.00,,,0.00,,2013-03-06 08:52:00,
2013-03-06 04:01:00,36.0,32.0,29.44,North,0,0.0,4.0,86,0.00,,,0.00,,2013-03-06 09:01:00,
2013-03-06 04:12:00,36.0,32.0,29.44,North,0,0.0,4.0,86,0.00,,,0.00,,2013-03-06 09:12:00,
2013-03-06 04:21:00,36.0,32.0,29.48,North,0,0.0,6.0,85,0.00,,,0.00,,2013-03-06 09:21:00,
2013-03-06 04:32:00,37.0,33.0,29.60,North,0,0.0,2.0,84,0.00,,,0.00,,2013-03-06 09:32:00,
2013-03-06 04:42:00,37.0,33.0,29.60,North,0,0.0,2.0,84,0.00,,,0.00,,2013-03-06 09:42:00,
2013-03-06 04:52:00,37.0,33.0,29.60,North,0,0.0,5.0,84,0.00,,,0.00,,2013-03-06 09:52:00,
2013-03-06 05:01:00,37.0,33.0,29.32,North,0,0.0,9.0,86,0.00,,,0.00,,2013-03-06 10:01:00,
2013-03-06 05:11:00,37.0,33.0,29.32,North,0,0.0,9.0,86,0.00,,,0.00,,2013-03-06 10:11:00,
2013-03-06 05:22:00,37.0,33.0,29.59,SSE,150,1.0,6.0,86,0.00,,,0.00,,2013-03-06 10:22:00,
2013-03-06 05:32:00,36.0,33.0,29.60,ESE,114,1.0,9.0,87,0.00,,,0.00,,2013-03-06 10:32:00,
2013-03-06 05:42:00,36.0,33.0,29.60,ESE,114,1.0,9.0,87,0.00,,,0.00,,2013-03-06 10:42:00,
2013-03-06 05:52:00,36.0,33.0,29.43,North,0,0.0,4.0,88,0.01,,,0.01,,2013-03-06 10:52:00,
2013-03-06 06:02:00,36.0,33.0,29.15,North,0,0.0,4.0,89,0.01,,,0.01,,2013-03-06 11:02:00,
2013-03-06 06:11:00,36.0,33.0,29.15,North,0,0.0,4.0,89,0.01,,,0.01,,2013-03-06 11:11:00,
2013-03-06 06:22:00,36.0,33.0,29.36,North,0,0.0,9.0,89,0.01,,,0.01,,2013-03-06 11:22:00,
2013-03-06 06:32:00,36.0,33.0,29.16,North,0,0.0,3.0,90,0.02,,,0.02,,2013-03-06 11:32:00,
2013-03-06 06:42:00,36.0,33.0,29.16,North,0,0.0,3.0,90,0.02,,,0.02,,2013-03-06 11:42:00,
2013-03-06 06:52:00,36.0,33.0,29.16,North,0,0.0,2.0,90,0.01,,,0.02,,2013-03-06 11:52:00,
2013-03-06 07:02:00,36.0,34.0,29.59,North,0,0.0,3.0,91,0.02,,,0.03,,2013-03-06 12:02:00,
2013-03-06 07:11:00,36.0,34.0,29.59,North,0,0.0,3.0,91,0.02,,,0.03,,2013-03-06 12:11:00,
2013-03-06 07:22:00,36.0,34.0,29.35,North,0,0.0,3.0,91,0.02,,,0.03,,2013-03-06 12:22:00,
2013-03-06 07:33:00,36.0,34.0,29.50,SE,129,1.0,4.0,92,0.02,,,0.04,,2013-03-06 12:33:00,
2013-03-06 07:42:00,36.0,34.0,29.50,SE,129,1.0,4.0,92,0.02,,,0.04,,2013-03-06 12:42:00,
2013-03-06 07:53:00,36.0,34.0,29.44,NNW,336,1.0,10.0,92,0.02,,,0.04,,2013-03-06 12:53:00,
2013-03-06 08:02:00,36.0,34.0,29.55,South,190,1.0,4.0,92,0.01,,,0.04,,2013-03-06 13:02:00,
2013-03-06 08:12:00,36.0,34.0,29.55,South,190,1.0,4.0,92,0.01,,,0.04,,2013-03-06 13:12:00,
2013-03-06 08:22:00,36.0,34.0,29.55,NNE,31,1.0,7.0,92,0.01,,,0.04,,2013-03-06 13:22:00,
2013-03-06 08:32:00,36.0,34.0,29.55,SSE,158,1.0,4.0,92,0.00,,,0.04,,2013-03-06 13:32:00,
2013-03-06 08:42:00,36.0,34.0,29.55,SSE,158,1.0,4.0,92,0.00,,,0.04,,2013-03-06 13:42:00,
2013-03-06 08:52:00,37.0,35.0,29.55,North,0,0.0,5.0,92,0.01,,,0.05,,2013-03-06 13:52:00,
2013-03-06 09:01:00,37.0,35.0,29.13,SSE,154,1.0,4.0,92,0.01,,,0.05,,2013-03-06 14:01:00,
2013-03-06 09:11:00,37.0,35.0,29.13,SSE,154,1.0,4.0,92,0.01,,,0.05,,2013-03-06 14:11:00,
2013-03-06 09:22:00,37.0,35.0,29.13,North,0,0.0,5.0,93,0.01,,,0.05,,2013-03-06 14:22:00,
2013-03-06 09:32:00,37.0,35.0,29.21,North,0,0.0,10.0,92,0.02,,,0.06,,2013-03-06 14:32:00,
2013-03-06 09:42:00,37.0,35.0,29.21,North,0,0.0,10.0,92,0.02,,,0.06,,2013-03-06 14:42:00,
2013-03-06 09:53:00,37.0,35.0,29.21,SSE,154,1.0,6.0,92,0.01,,,0.06,,2013-03-06 14:53:00,
2013-03-06 10:02:00,37.0,35.0,29.29,North,0,0.0,9.0,92,0.02,,,0.07,,2013-03-06 15:02:00,
2013-03-06 10:11:00,37.0,35.0,29.29,North,0,0.0,9.0,92,0.02,,,0.07,,2013-03-06 15:11:00,
2013-03-06 10:22:00,37.0,35.0,29.29,SSE,153,1.0,4.0,92,0.02,,,0.07,,2013-03-06 15:22:00,
2013-03-06 10:32:00,37.0,35.0,29.00,SSE,165,2.0,9.0,92,0.01,,,0.07,,2013-03-06 15:32:00,
2013-03-06 10:42:00,37.0,35.0,29.00,SSE,165,2.0,9.0,92,0.01,,,0.07,,2013-03-06 15:42:00,
2013-03-06 10:52:00,37.0,35.0,28.93,SSE,167,1.0,10.0,91,0.01,,,0.07,,2013-03-06 15:52:00,
2013-03-06 11:02:00,38.0,35.0,29.07,North,0,0.0,7.0,90,0.00,,,0.07,,2013-03-06 16:02:00,
2013-03-06 11:12:00,38.0,35.0,29.07,North,0,0.0,7.0,90,0.00,,,0.07,,2013-03-06 16:12:00,
2013-03-06 11:21:00,38.0,35.0,29.32,ESE,117,3.0,13.0,90,0.00,,,0.07,,2013-03-06 16:21:00,
2013-03-06 11:32:00,38.0,35.0,29.29,NW,321,2.0,11.0,90,0.01,,,0.08,,2013-03-06 16:32:00,
2013-03-06 11:42:00,38.0,35.0,29.29,NW,321,2.0,11.0,90,0.01,,,0.08,,2013-03-06 16:42:00,
2013-03-06 11:52:00,37.0,34.0,29.29,SSE,149,4.0,12.0,90,0.01,,,0.08,,2013-03-06 16:52:00,
2013-03-06 12:01:00,38.0,35.0,29.29,North,0,0.0,11.0,90,0.02,,,0.09,,2013-03-06 17:01:00,
2013-03-06 12:11:00,38.0,35.0,29.29,North,0,0.0,11.0,90,0.02,,,0.09,,2013-03-06 17:11:00,
2013-03-06 12:22:00,37.0,34.0,29.29,North,0,0.0,11.0,90,0.02,,,0.09,,2013-03-06 17:22:00,
2013-03-06 12:32:00,37.0,35.0,29.01,NNW,345,1.0,13.0,91,0.02,,,0.10,,2013-03-06 17:32:00,
2013-03-06 12:42:00,37.0,35.0,29.01,NNW,345,1.0,13.0,91,0.02,,,0.10,,2013-03-06 17:42:00,
2013-03-06 12:53:00,37.0,35.0,29.01,North,2,1.0,5.0,92,0.03,,,0.11,,2013-03-06 17:53:00,
2013-03-06 13:02:00,37.0,35.0,29.33,NNW,344,2.0,8.0,92,0.03,,,0.12,,2013-03-06 18:02:00,
2013-03-06 13:28:00,37.0,35.0,29.50,North,8,1.0,6.0,93,0.03,,,0.12,,2013-03-06 18:28:00,
2013-03-06 13:42:00,37.0,35.0,29.12,NNW,327,3.0,15.0,93,0.03,,,0.13,,2013-03-06 18:42:00,
2013-03-06 13:53:00,37.0,35.0,29.41,ENE,66,2.0,6.0,93,0.02,,,0.13,,2013-03-06 18:53:00,
2013-03-06 23:32:00,38.0,31.0,29.46,NNW,345,1.0,3.0,75,0.00,,,0.13,,2013-03-07 04:32:00,
2013-03-06 23:42:00,38.0,31.0,29.46,NNW,345,1.0,3.0,75,0.00,,,0.13,,2013-03-07 04:42:00,
2013-03-06 23:52:00,38.0,31.0,29.52,NE,39,2.0,6.0,75,0.00,,,0.13,,2013-03-07 04:52:00,